• In Hungary
  • List of Countries
  • For 7 days
  • Water Temperature
  • Satellite Maps
  • Weather Map
  • News
  • Weather Widgets
  • user-avatar
    Login

    Hourly Weather Filderstadt

    Today, 12 December, Tuesday

    Time Temperature Precipitation Wind Pressure Humidity
    00:00 +2°C° 0.1 mm 5 mps 709 mmHg 85%
    01:00 +2°C° 0.1 mm 5 mps 709 mmHg 85%
    02:00 +2°C° 0.1 mm 5 mps 710 mmHg 85%
    03:00 +1°C° 0.1 mm 6 mps 711 mmHg 84%
    04:00 +1°C° 0.1 mm 6 mps 712 mmHg 83%
    05:00 -1°C° 0 mm 6 mps 714 mmHg 83%
    06:00 -1°C° 0 mm 6 mps 715 mmHg 83%
    07:00 -2°C° 0 mm 6 mps 717 mmHg 83%
    08:00 -2°C° 0 mm 6 mps 718 mmHg 83%
    09:00 -2°C° 0 mm 6 mps 720 mmHg 83%
    10:00 -2°C° 0 mm 6 mps 721 mmHg 83%
    11:00 0°C° 0 mm 5 mps 722 mmHg 82%
    12:00 0°C° 0 mm 5 mps 723 mmHg 81%
    13:00 0°C° 0 mm 5 mps 724 mmHg 80%
    14:00 0°C° 0 mm 4 mps 724 mmHg 81%
    15:00 0°C° 0 mm 4 mps 725 mmHg 83%
    16:00 0°C° 0 mm 3 mps 726 mmHg 84%
    17:00 0°C° 0 mm 3 mps 726 mmHg 86%
    18:00 -1°C° 0 mm 3 mps 727 mmHg 88%
    19:00 -2°C° 0 mm 2 mps 727 mmHg 90%
    20:00 -2°C° 0 mm 2 mps 728 mmHg 90%
    21:00 -2°C° 0 mm 2 mps 729 mmHg 89%
    22:00 -2°C° 0 mm 2 mps 729 mmHg 89%
    23:00 -2°C° 0 mm 3 mps 729 mmHg 89%

    Tomorrow, 13 December, Wednesday

    Time Temperature Precipitation Wind Pressure Humidity
    00:00 -2°C° 0 mm 3 mps 730 mmHg 89%
    01:00 -2°C° 0 mm 3 mps 730 mmHg 89%
    02:00 -2°C° 0 mm 3 mps 730 mmHg 89%
    03:00 -2°C° 0 mm 3 mps 730 mmHg 89%
    04:00 -2°C° 0 mm 3 mps 730 mmHg 89%
    05:00 -2°C° 0 mm 3 mps 729 mmHg 87%
    06:00 -2°C° 0 mm 3 mps 729 mmHg 86%
    07:00 -2°C° 0 mm 3 mps 729 mmHg 84%
    08:00 -3°C° 0 mm 4 mps 729 mmHg 80%
    09:00 -2°C° 0 mm 4 mps 728 mmHg 76%
    10:00 -1°C° 0 mm 5 mps 728 mmHg 71%
    11:00 0°C° 0 mm 5 mps 727 mmHg 69%
    12:00 +1°C° 0 mm 5 mps 726 mmHg 66%
    13:00 +2°C° 0 mm 5 mps 725 mmHg 64%
    14:00 +2°C° 0.2 mm 5 mps 724 mmHg 66%
    15:00 +1°C° 0.2 mm 5 mps 723 mmHg 68%
    16:00 +1°C° 0.2 mm 5 mps 722 mmHg 70%
    17:00 +2°C° 0.6 mm 5 mps 722 mmHg 73%
    18:00 +2°C° 0.6 mm 6 mps 722 mmHg 76%
    19:00 +2°C° 0.6 mm 7 mps 721 mmHg 79%
    20:00 +2°C° 0.2 mm 6 mps 721 mmHg 80%
    21:00 +3°C° 0.2 mm 6 mps 720 mmHg 81%
    22:00 +3°C° 0.2 mm 6 mps 719 mmHg 82%
    23:00 +3°C° 0.1 mm 7 mps 719 mmHg 82%

    Day after tomorrow, 14 December, Thursday

    Time Temperature Precipitation Wind Pressure Humidity
    00:00 +3°C° 0.1 mm 7 mps 718 mmHg 83%
    01:00 +4°C° 0.1 mm 7 mps 717 mmHg 83%
    02:00 +4°C° 0.3 mm 7 mps 717 mmHg 84%
    03:00 +4°C° 0.3 mm 8 mps 717 mmHg 84%
    04:00 +4°C° 0.3 mm 8 mps 717 mmHg 85%
    05:00 +3°C° 0.4 mm 7 mps 717 mmHg 84%
    06:00 +3°C° 0.4 mm 7 mps 718 mmHg 84%
    07:00 +2°C° 0.4 mm 6 mps 719 mmHg 83%
    08:00 +2°C° 0.3 mm 6 mps 719 mmHg 84%
    09:00 +2°C° 0.3 mm 5 mps 719 mmHg 85%
    10:00 +3°C° 0.3 mm 4 mps 720 mmHg 85%
    11:00 +2°C° 0.2 mm 5 mps 719 mmHg 85%
    12:00 +2°C° 0.2 mm 5 mps 719 mmHg 84%
    13:00 +3°C° 0.2 mm 5 mps 718 mmHg 83%
    14:00 +3°C° 0.2 mm 5 mps 717 mmHg 82%
    15:00 +2°C° 0.2 mm 5 mps 716 mmHg 81%
    16:00 +2°C° 0.2 mm 5 mps 715 mmHg 80%
    17:00 +2°C° 2 mm 5 mps 714 mmHg 82%
    18:00 +2°C° 2 mm 5 mps 714 mmHg 85%
    19:00 +2°C° 2 mm 6 mps 713 mmHg 87%
    20:00 +2°C° 1.7 mm 6 mps 713 mmHg 87%
    21:00 +2°C° 1.7 mm 6 mps 713 mmHg 86%
    22:00 +2°C° 1.7 mm 7 mps 713 mmHg 86%
    23:00 +1°C° 0.1 mm 6 mps 714 mmHg 85%

    15 December, Friday

    Time Temperature Precipitation Wind Pressure Humidity
    00:00 +1°C° 0.1 mm 6 mps 715 mmHg 84%
    01:00 0°C° 0.1 mm 5 mps 715 mmHg 83%
    02:00 0°C° 0 mm 5 mps 715 mmHg 83%
    03:00 -1°C° 0 mm 5 mps 716 mmHg 84%
    04:00 -1°C° 0 mm 4 mps 716 mmHg 85%
    05:00 -1°C° 0.1 mm 4 mps 716 mmHg 85%
    06:00 -1°C° 0.1 mm 4 mps 716 mmHg 86%
    07:00 -1°C° 0.1 mm 4 mps 716 mmHg 87%
    08:00 0°C° 0 mm 5 mps 716 mmHg 85%
    09:00 0°C° 0 mm 5 mps 716 mmHg 83%
    10:00 0°C° 0 mm 5 mps 716 mmHg 81%
    11:00 +1°C° 0 mm 6 mps 716 mmHg 78%
    12:00 +1°C° 0 mm 6 mps 715 mmHg 76%
    13:00 +2°C° 0 mm 6 mps 715 mmHg 73%
    14:00 +2°C° 0 mm 6 mps 715 mmHg 75%
    15:00 +1°C° 0 mm 5 mps 715 mmHg 77%
    16:00 +1°C° 0 mm 5 mps 714 mmHg 79%
    17:00 +1°C° 0.2 mm 5 mps 715 mmHg 81%
    18:00 +1°C° 0.2 mm 5 mps 715 mmHg 82%
    19:00 0°C° 0.2 mm 5 mps 715 mmHg 84%
    20:00 0°C° 0.5 mm 5 mps 716 mmHg 86%
    21:00 0°C° 0.5 mm 5 mps 717 mmHg 88%
    22:00 0°C° 0.5 mm 5 mps 717 mmHg 90%
    23:00 0°C° 0.2 mm 5 mps 718 mmHg 90%

    16 December, Saturday

    Time Temperature Precipitation Wind Pressure Humidity
    00:00 0°C° 0.2 mm 5 mps 719 mmHg 90%
    01:00 -1°C° 0.2 mm 5 mps 719 mmHg 90%
    02:00 -1°C° 0.1 mm 5 mps 720 mmHg 89%
    03:00 -1°C° 0.1 mm 4 mps 720 mmHg 89%
    04:00 -1°C° 0.1 mm 4 mps 721 mmHg 89%
    05:00 -2°C° 0.1 mm 4 mps 721 mmHg 89%
    06:00 -2°C° 0.1 mm 4 mps 722 mmHg 89%
    07:00 -2°C° 0.1 mm 4 mps 722 mmHg 89%
    08:00 -2°C° 0.2 mm 4 mps 723 mmHg 89%
    09:00 -1°C° 0.2 mm 4 mps 723 mmHg 88%
    10:00 -1°C° 0.2 mm 5 mps 723 mmHg 87%
    11:00 -1°C° 0.3 mm 5 mps 723 mmHg 87%
    12:00 0°C° 0.3 mm 5 mps 723 mmHg 87%
    13:00 0°C° 0.3 mm 5 mps 724 mmHg 86%
    14:00 0°C° 0.2 mm 5 mps 724 mmHg 87%
    15:00 0°C° 0.2 mm 4 mps 724 mmHg 88%
    16:00 -1°C° 0.2 mm 4 mps 724 mmHg 89%
    17:00 -1°C° 0.1 mm 4 mps 725 mmHg 89%
    18:00 0°C° 0.1 mm 3 mps 725 mmHg 89%
    19:00 -1°C° 0.1 mm 3 mps 725 mmHg 90%
    20:00 -1°C° 0.1 mm 3 mps 726 mmHg 90%
    21:00 -1°C° 0.1 mm 3 mps 726 mmHg 90%
    22:00 -2°C° 0.1 mm 4 mps 726 mmHg 90%
    23:00 -1°C° 0.3 mm 3 mps 726 mmHg 91%

    17 December, Sunday

    Time Temperature Precipitation Wind Pressure Humidity
    00:00 -1°C° 0.3 mm 3 mps 727 mmHg 92%
    01:00 -1°C° 0.3 mm 3 mps 727 mmHg 93%
    02:00 -1°C° 0.2 mm 3 mps 727 mmHg 93%
    03:00 -1°C° 0.2 mm 3 mps 727 mmHg 94%
    04:00 -2°C° 0.2 mm 3 mps 728 mmHg 94%
    05:00 -2°C° 0.1 mm 3 mps 728 mmHg 94%
    06:00 -2°C° 0.1 mm 3 mps 728 mmHg 94%
    07:00 -4°C° 0.1 mm 3 mps 729 mmHg 93%
    08:00 -2°C° 0 mm 3 mps 729 mmHg 92%
    09:00 -2°C° 0 mm 3 mps 730 mmHg 91%
    10:00 -2°C° 0 mm 3 mps 730 mmHg 90%
    11:00 -1°C° 0.1 mm 3 mps 730 mmHg 89%
    12:00 -2°C° 0.1 mm 4 mps 731 mmHg 88%
    13:00 -1°C° 0.1 mm 4 mps 731 mmHg 87%
    14:00 -2°C° 0.1 mm 4 mps 731 mmHg 88%
    15:00 -1°C° 0.1 mm 3 mps 731 mmHg 88%
    16:00 -1°C° 0.1 mm 3 mps 731 mmHg 89%
    17:00 -2°C° 0 mm 3 mps 731 mmHg 89%
    18:00 -2°C° 0 mm 3 mps 732 mmHg 90%
    19:00 -4°C° 0 mm 3 mps 732 mmHg 90%
    20:00 -4°C° 0 mm 3 mps 732 mmHg 89%
    21:00 -4°C° 0 mm 3 mps 732 mmHg 88%
    22:00 -5°C° 0 mm 3 mps 732 mmHg 87%
    23:00 -4°C° 0 mm 3 mps 732 mmHg 86%
    Show more